Regional Weather Roundup
Issued by NWS Wakefield, VA

Home | Current Version | Previous Version | Graphics & Text | Print | Product List | Glossary On
Versions: 1 2 3 4 5 6 7 8 9 10 11 12 13 14 15 16 17 18 19 20 21 22 23 24 25 26 27 28 29 30 31 32 33 34 35 36 37 38 39 40 41 42 43 44 45 46 47 48 49 50
000
ASUS41 KAKQ 291210
RWRAKQ

REGIONAL WEATHER ROUNDUP
NATIONAL WEATHER SERVICE WAKEFIELD VA
700 AM EST MON DEC 29 2014

Note: "fair" indicates few or no clouds below 12,000 feet with no
significant weather and/or obstructions to visibility. * = Denotes
station may not report precipitation (e.g., rain,snow,etc.),
thunder or fog.

VAZ042-051-052>054-056-291300-
NORTHERN VIRGINIA

CITY           SKY/WX    TMP DP  RH WIND       PRES   REMARKS
WASH NATIONAL  CLOUDY    45  32  60 N12       30.18F
DULLES         CLOUDY    40  30  67 N7        30.17F
FORT BELVOIR   CLOUDY    42  35  76 VRB3      30.18F
QUANTICO       CLOUDY    43  35  73 N7        30.19F
FREDERICKSBRG* CLOUDY    42  40  90 CALM      30.17R
STAFFORD*      CLOUDY    40  39  96 CALM      30.21R
WARRENTON      CLOUDY    41  39  93 CALM      30.16R
CULPEPER*      CLOUDY    41  36  81 CALM      30.16S
MANASSAS*      CLOUDY    41  36  81 N5        30.17F
LEESBURG*      CLOUDY    41  32  70 NE3       30.19R
WINCHESTER     CLOUDY    41  27  56 NE3       30.17R
FRONT ROYAL*   CLOUDY    37  30  75 N5        30.16R
LURAY*         CLOUDY    41  32  70 N7        30.14R
$$

VAZ048-049-060>072-079>083-291300-
CENTRAL AND SOUTH CENTRAL VIRGINIA

CITY           SKY/WX    TMP DP  RH WIND       PRES   REMARKS
RICHMOND       LGT RAIN  43  38  82 NE8       30.17R
CHESTERFIELD*  CLOUDY    43  28  56 NE5       30.17R
PETERSBURG*    RAIN      46  44  94 NE9       30.16S
HANOVER        LGT RAIN  41  39  93 VRB5      30.18R
TAPPAHANNOCK*  RAIN      42  37  82 N3        30.18R
QUINTON*       CLOUDY    41  40  96 N5        30.18R
CHARLOTTSVILLE CLOUDY    40  36  86 E6        30.14S
GORDONSVILLE*  CLOUDY    39  35  87 E5        30.15S
ORANGE*        CLOUDY    41  36  81 NE5       30.16S
LOUISA*        DRIZZLE   39  37  93 E5        30.14F
BUMPASS*       CLOUDY    39  36  89 CALM      30.16F
FARMVILLE*     LGT RAIN  44  44 100 NE9       30.07F
CREWE*         CLOUDY    42  40  92 NE8       30.13S
FORT PICKETT*  CLOUDY    43  42  97 NE12      30.13F
CHASE CITY*    CLOUDY    49  49 100 NE9       30.08F
CLARKSVILLE*   CLOUDY    48  46  93 NE7       30.07F
SOUTH HILL*    CLOUDY    47  46  98 NE5       30.17S
LAWRENCEVILLE* CLOUDY    47  47  99 CALM      30.13R
EMPORIA*       RAIN      46  46 100 N5        30.15S
$$

VAZ088>098-291300-
SOUTHEAST VIRGINIA

CITY           SKY/WX    TMP DP  RH WIND       PRES   REMARKS
NORFOLK        CLOUDY    46  43  89 N16       30.14R
VIRGINIA BEACH RAIN      49  46  90 NE10      30.14R
NORFOLK NAVAL  LGT RAIN  48  43  82 N17       30.18R FOG
WEST POINT*    CLOUDY    44  41  88 NE3       30.21R
SALUDA*        CLOUDY    41  38  90 N8        30.18R
NEWPORT NEWS   RAIN      47  41  80 NE10G21   30.18R
LANGLEY AFB    RAIN      45  43  93 N12       30.17R FOG
FORT EUSTIS    RAIN      45  45 100 N10       30.17R
WILLIAMSBURG*  CLOUDY    46  45  93 NE8       30.19R
HR EXEC AP*    CLOUDY    46  43  87 NE7       30.17R
FRANKLIN*      CLOUDY    46  46 100 NE8       30.14R
WAKEFIELD      RAIN      46  44  93 N7        30.16R FOG
$$

VAZ020-022-025-037-045-291300-
WEST CENTRAL AND SOUTHWEST VIRGINIA

CITY           SKY/WX    TMP DP  RH WIND       PRES   REMARKS
STAUNTON*      DRIZZLE   38  34  85 NE10      30.14R
WAYNESBORO*    CLOUDY    37  36  97 NW3       30.11R
HOT SPRINGS VA FOG       37  37 100 NW3       30.01S VSB 1/4
LYNCHBURG      LGT RAIN  44  44 100 NE12      30.11S
DANVILLE       RAIN      50  48  93 VRB5      30.09R
SOUTH BOSTON*  CLOUDY    49  47  95 NE5       30.09S
MARTINSVILLE   RAIN      48  48 100 CALM      30.10R
ROANOKE        LGT RAIN  47  44  90 N6        30.11R
BLACKSBURG     LGT RAIN  43  42  96 N5        30.09R
DUBLIN*        LGT RAIN  44  44 100 CALM      30.08R
MARION*        CLOUDY    47  46  96 CALM      30.09R FOG
HILLSVILLE*    LGT RAIN  44  44 100 CALM      30.06R VSB 1
RICHLANDS*     FOG       39  38  95 E3        30.04F VSB 1/4
WISE*          FOG       37  37 100 N7        30.07R VSB 1/4
ABINGDON*      CLOUDY    47  47 100 CALM      30.06R
$$

MDZ021>025-VAZ099-100-291300-
SOUTHERN MARYLAND AND THE DELMARVA PENINSULA

CITY           SKY/WX    TMP DP  RH WIND       PRES   REMARKS
PATUXENT RIVER LGT RAIN  42  35  76 N10       30.18R
BAY BRIDGE APT   N/A     41  30  65 N10       30.17F
LEONARDTOWN    CLOUDY    41  36  81 CALM      30.19R
DOVER          LGT RAIN  41  37  87 N9        30.15F
GEORGETOWN     LGT RAIN  43  38  82 N7        30.19R
EASTON         LGT RAIN  41  41 100 NE7       30.20F
CAMBRIDGE      CLOUDY    43  36  75 N7        30.17
SALISBURY      LGT RAIN  44  38  79 N9        30.17R
OCEAN CITY     LGT RAIN  42  39  89 N9        30.16R
WALLOPS ISLAND LGT RAIN  41  39  93 N12       30.15R
ACCOMACK*      LGT RAIN  43  39  87 N7        30.16R
$$

NCZ012>017-030>032-291300-
NORTH CENTRAL AND EASTERN NORTH CAROLINA

CITY           SKY/WX    TMP DP  RH WIND       PRES   REMARKS
ROANOKE RAPIDS LGT RAIN  48  48 100 N10       30.11S
RALEIGH        LGT RAIN  52  49  89 NE8       30.06F
ELIZABETH CITY LGT RAIN  54  46  76 N13       30.13R
AHOSKIE*       LGT RAIN  48  47  95 NE6       30.12S
EDENTON*       DRIZZLE   51  50  95 NE7       30.12R
CURRITUCK*     RAIN      50  47  91 N12       30.14R
KILL DEVIL HLS DRIZZLE   51  51 100 N6        30.07R
MANTEO         CLOUDY    52  52 100 NE13      30.08R
CAPE HATTERAS  CLOUDY    56  56 100 VRB3      30.05S FOG
TARBORO*       RAIN      53  53  97 NE3       30.11S
GOLDSBORO      LGT RAIN  55  55 100 NE6       30.06S FOG
WASHINGTON     CLOUDY    55  54  94 N8        30.07S
GREENVILLE     DRIZZLE   54  54 100 N8        30.10R
NEW BERN       CLOUDY    61  57  87 NE8       30.06R
WILMINGTON     MOCLDY    59  58  96 CALM      30.03S
$$

VAZ048-291300-
ELSEWHERE

CITY           SKY/WX    TMP DP  RH WIND       PRES   REMARKS
HARRISBURG PA  CLOUDY    33  26  75 CALM      30.17F
BALTIMORE      CLOUDY    40  27  59 N8        30.16F
ANNAPOLIS      CLOUDY    42  31  64 N8        30.15F
ANDREWS AFB    CLOUDY    40  34  78 N9        30.16F
PHILADELPHIA   CLOUDY    41  23  48 N5        30.20R
HENDERSON NC   LGT RAIN  50  48  94 NE9       30.07F
GREENSBORO     RAIN      50  49  96 E7        30.06S FOG
ROCKY MOUNT    RAIN      53  52  96 NE6       30.09F FOG
$$

VAZ100-291300-
MARINE

STATION/POSITION TIME  TEMP    WIND        PRES    WAVE   SWELL
                       AIR SEA DIR/SP/G            HT/PER HT/PER
                 (UTC) (F)     (DEG/KT/KT) (MB)    (FT/S) (FT/S)
CAPE MAY NJ      1200   41 46   20/  5/  9 1021.7S
LEWES DE         1200   43 44   30/ 17/ 19 1021.7S
15NM E FENWICK I 1200   44 45              1020.6R   3/13
OCEAN-CITY-INLET 1200   44 45   10/ 12/ 15 1020.8R
WACHAPREAGUE VA  1200   44 49  350/  6/ 12 1020.5R
THOMAS POINT MD  1200   42 43   30/ 15/ 16 1022.5F
GOOSES REEF MD   1200   42     VRB 10/ 14  1020.5F
COVE POINT MD    1200   42      30/ 14/ 17 1021.5F
SOLOMONS ISLAND  1200      44                N/A
BISHOPS HEAD MD  1200   42 46   10/  9/ 13 1021.0R
PINEY POINT MD   1200           10/  5/  6   N/A
POTOMAC MD       1200   43      20/ 12/ 16 1020.5R
CAMBRIDGE MD     1200   42 43   10/ 10/ 12 1021.3F
LEWISETTA VA     1200   42 45   10/  6/ 10 1021.6R
RAPPAHANNOCK LGT 1200          360/ 22/ 25 1021.0R
STINGRAY PT      1200   43      20/ 17/ 21 1021.2R
YORK RVR RNG VA  1200   43      10/ 21/ 24 1020.4R
YORKTOWN VA      1200   44 46  360/ 15/ 18 1021.6R
JAMESTOWN VA     1200   44      30/  6/ 12   N/A
DOMINION TERM VA 1200   46      50/  5/ 10 1020.8R
KIPTOPEKE VA     1200      51  350/ 11/ 13   N/A
CHES BAY BRIDGE  1200   45 46  350/ 17/ 20 1020.0R
CAPE HENRY VA    1200   47     360/  9/  9 1019.4R
CHESAPEAKE LGHT  1100   48      30/ 22/ 23 1019.0R
WILLOUBY STN VA  1200   45      10/ 16/ 19 1021.4R
S CRANEY ISL VA  1200           10/ 15/ 18 1020.5R
CAPE HENRY BUOY  1200      48                N/A     3/ 4   2/13
1ST LANDING BUOY 1200   47     360/ 14/ 17 1019.8R
CAPE CHARLES BUO 1200      48                N/A     3/13   2/13
64NM E OF VA BCH 1200   53 53   20/ 16/ 17 1018.1R   3/13   2/13
DUCK PIER NC     1200   50 50   10/ 11/ 15 1018.5R
44100 DUCK FRF   1200      51                N/A     2/13   2/13
44056 DUCK FRF   1200      49                N/A     2/13   2/13
OREGON INLET NC  1200   53 53  360/ 10/ 13 1018.2R
HATTERAS NC      1200   56 60   30/  4/  5 1017.8F
DIAMOND SHLS NC  1200   62                 1017.6R   2/13
CAPE LOOKOUT NC  1100   60      60/  7/  8 1017.3R
$$


USA.gov is the U.S. government's official web portal to all federal, state and local government web resources and services.